[[{"header":{"parameterUnit":"m.s-1","parameterCategory":1,"la1":30.2991,"la2":30.254,"lo1":-89.0895,"lo2":-89.0444,"dy":0.0017,"dx":0.0017,"nx":28,"ny":28,"refTime":"2023-08-25T03:00:00:Z","depth":0,"parameterNumber":2,"parameterNumberName":"U-component_of_WINDS"},"data":[0,0,0,0,0,0,0,0,0,0,0,0,0,0,0,0,0,0,0,0,0,0,0,0,0,0,0,0,0,0,0,0,0,0,0,0,0,0,0,0,0,0,0,0,0,0,0,0,0,0,0,0,0,0,0,0,0,0,-0.0953,-0.0953,0,-0.0968,-0.0968,-0.0968,-0.0947,-0.0946,-0.0946,-0.0945,-0.0963,-0.0964,-0.0965,0,0,0,0,0,0,0,0,0,0,0,0,0,-0.0909,-0.091,-0.0953,-0.0953,-0.0953,-0.0968,-0.0968,-0.0968,-0.0947,-0.0946,-0.0946,-0.0945,-0.0963,-0.0964,-0.0965,0,0,0,0,0,0,0,0,0,0,0,0,0,-0.0927,-0.0911,-0.0953,-0.0945,-0.0944,-0.0968,-0.0968,-0.0968,-0.0948,-0.0946,-0.0945,-0.0944,-0.0962,-0.0964,-0.0966,-0.0999,0,0,-0.0971,-0.0972,0,0,0,0,0,0,0,0,-0.0926,-0.0928,-0.0946,-0.0945,-0.0945,-0.0954,-0.0959,-0.0979,-0.0948,-0.0946,-0.0945,-0.0944,-0.0961,-0.0963,-0.0968,-0.1,-0.1001,-0.0971,-0.0972,-0.0973,-0.0974,0,0,0,0,0,0,0,-0.0925,-0.0928,-0.0959,-0.0946,-0.0945,-0.0941,-0.0942,-0.0963,-0.096,-0.0946,-0.0945,-0.0947,-0.0961,-0.0967,-0.0969,-0.1001,-0.0971,-0.0973,-0.0974,-0.0975,-0.1063,-0.1064,0,0,0,0,0,0,-0.0924,-0.0927,-0.0958,-0.0959,-0.0932,-0.0943,-0.0944,-0.0952,-0.096,-0.096,-0.0948,-0.0946,-0.0964,-0.0967,-0.0969,-0.1011,-0.0973,-0.0975,-0.0976,-0.1062,-0.1063,-0.1065,0,0,0,0,0,0,-0.0923,-0.0927,-0.0958,-0.0943,-0.0946,-0.0945,-0.0954,-0.0953,-0.0959,-0.0961,-0.096,-0.0954,-0.0963,-0.0967,-0.0992,-0.1011,-0.0975,-0.0977,-0.106,-0.1062,-0.1064,-0.1093,0,0,0,0,0,0,-0.0922,-0.0927,-0.0939,-0.0943,-0.0947,-0.098,-0.0955,-0.0954,-0.0962,-0.096,-0.0967,-0.0967,-0.0963,-0.099,-0.0994,-0.1013,-0.0978,-0.1059,-0.1061,-0.1064,-0.109,-0.1095,-0.11,0,0,0,0,0,-0.0921,-0.0946,-0.094,-0.0943,-0.0962,-0.0981,-0.0983,-0.0977,-0.0964,-0.0976,-0.0977,-0.0967,-0.1008,-0.0992,-0.0997,-0.1017,-0.1058,-0.1061,-0.1063,-0.1088,-0.1094,-0.11,0,0,0,0,0,0,-0.0945,-0.0947,-0.0939,-0.0967,-0.0974,-0.0977,-0.0993,-0.0984,-0.0996,-0.0993,-0.0986,-0.0988,-0.1015,-0.1018,-0.1001,-0.1051,-0.1031,-0.1035,-0.1048,-0.1054,-0.1059,-0.1058,-0.098,0,0,0,0,0,-0.0954,-0.0968,-0.0969,-0.0993,-0.0997,-0.0995,-0.1002,-0.0997,-0.1005,-0.1008,-0.101,-0.1019,-0.1034,-0.1044,-0.1057,-0.109,-0.1092,-0.1106,-0.1111,-0.1115,-0.1119,-0.1138,-0.1145,-0.1074,-0.1074,-0.1074,0,0,-0.0972,-0.0975,-0.0984,-0.0999,-0.1003,-0.1019,-0.0997,-0.1015,-0.1027,-0.101,-0.1035,-0.1037,-0.1046,-0.1076,-0.1089,-0.1079,-0.1139,-0.1118,-0.1122,-0.1124,-0.1142,-0.1149,-0.1155,-0.1076,-0.1076,-0.1076,0,0,-0.1014,-0.1016,-0.1038,-0.1043,-0.105,-0.1048,-0.1053,-0.1058,-0.1059,-0.1083,-0.1071,-0.1086,-0.1112,-0.1119,-0.1126,-0.1171,-0.1162,-0.1176,-0.1202,-0.1221,-0.1226,-0.1231,-0.1249,-0.1255,-0.1179,-0.1179,-0.1179,0,-0.1036,-0.1058,-0.105,-0.1069,-0.1076,-0.1061,-0.1084,-0.1089,-0.1101,-0.1107,-0.1096,-0.1128,-0.1133,-0.1165,-0.1176,-0.1181,-0.1189,-0.1175,-0.1226,-0.1231,-0.1235,-0.1252,-0.1259,-0.1181,-0.1181,-0.1181,-0.1181,0,-0.1086,-0.1102,-0.1119,-0.113,-0.1139,-0.116,-0.1156,-0.1166,-0.116,-0.116,-0.1186,-0.1191,-0.1206,-0.1213,-0.1208,-0.1245,-0.1239,-0.1227,-0.1207,-0.1244,-0.126,-0.1266,-0.1184,-0.1183,-0.1182,-0.1182,0,0,-0.1144,-0.1151,-0.1157,-0.1163,-0.117,-0.1183,-0.1203,-0.1217,-0.1227,-0.1236,-0.1254,-0.1276,-0.1265,-0.1273,-0.1268,-0.1285,-0.1323,-0.1271,-0.1271,-0.1282,-0.1366,-0.1377,-0.1384,-0.1316,-0.1317,-0.1318,-0.1366,0,-0.1187,-0.1222,-0.1215,-0.125,-0.1266,-0.1252,-0.127,-0.1277,-0.1277,-0.1292,-0.1292,-0.1309,-0.1292,-0.1297,-0.1313,-0.1315,-0.134,-0.1311,-0.1335,-0.1336,-0.1335,-0.1392,-0.1403,-0.1448,-0.1372,-0.1373,-0.1374,0,-0.1242,-0.1252,-0.1288,-0.1294,-0.13,-0.1316,-0.133,-0.1343,-0.1351,-0.135,-0.136,-0.1352,-0.1374,-0.1353,-0.1384,-0.1365,-0.1374,-0.1377,-0.1378,-0.1382,-0.1358,-0.1399,-0.1462,-0.147,-0.1383,-0.1383,-0.1382,0,-0.1284,-0.1306,-0.1331,-0.1336,-0.1342,-0.1355,-0.1358,-0.1365,-0.1374,-0.1386,-0.1392,-0.1407,-0.1415,-0.1427,-0.1424,-0.1408,-0.1457,-0.1435,-0.1459,-0.1459,-0.1471,-0.147,-0.1538,-0.1474,-0.1474,-0.1473,-0.1473,0,-0.1333,-0.1356,-0.135,-0.1365,-0.1391,-0.1384,-0.141,-0.1412,-0.1418,-0.1435,-0.1423,-0.1439,-0.1434,-0.145,-0.1448,-0.1475,-0.1479,-0.148,-0.148,-0.1482,-0.1482,-0.149,-0.1487,-0.1475,-0.1475,-0.1474,-0.1474,0,-0.1385,-0.1381,-0.1407,-0.1411,-0.1413,-0.1432,-0.1436,-0.1451,-0.145,-0.1472,-0.1476,-0.1476,-0.1495,-0.1492,-0.1513,-0.1512,-0.1547,-0.1541,-0.1544,-0.1543,-0.1568,-0.1566,-0.1644,-0.1655,-0.1582,-0.1582,-0.1583,0,-0.1417,-0.1435,-0.144,-0.145,-0.1455,-0.1471,-0.148,-0.1473,-0.1484,-0.1495,-0.151,-0.1527,-0.1541,-0.1571,-0.1574,-0.159,-0.1586,-0.1612,-0.1589,-0.1592,-0.1589,-0.1589,-0.1592,-0.1618,-0.1619,-0.1619,-0.162,0,-0.1477,-0.1474,-0.1488,-0.1501,-0.1512,-0.1523,-0.1532,-0.1541,-0.1535,-0.1548,-0.1567,-0.1577,-0.1598,-0.1617,-0.1632,-0.1637,-0.1629,-0.1627,-0.1634,-0.1637,-0.1639,-0.164,-0.1559,-0.1626,-0.1625,-0.1625,-0.1624,-0.1624,-0.1521,-0.1537,-0.1543,-0.1559,-0.1565,-0.1574,-0.1589,-0.159,-0.1605,-0.1622,-0.1617,-0.1638,-0.1647,-0.1667,-0.1674,-0.1691,-0.1682,-0.1691,-0.1694,-0.1697,-0.1701,-0.1634,-0.1694,-0.1694,-0.1694,-0.1694,-0.1693,0,-0.1582,-0.1585,-0.16,-0.1613,-0.1626,-0.1615,-0.1625,-0.1637,-0.1655,-0.1664,-0.1677,-0.17,-0.1717,-0.1721,-0.1738,-0.1752,-0.1749,-0.1757,-0.1757,-0.1759,-0.1707,-0.17,-0.1759,-0.1759,-0.1759,-0.1759,-0.1759,-0.1759,-0.1615,-0.1641,-0.1639,-0.1669,-0.1672,-0.1692,-0.1699,-0.1708,-0.1715,-0.174,-0.1754,-0.1756,-0.1763,-0.1781,-0.1797,-0.1798,-0.1806,-0.1817,-0.1816,-0.1768,-0.1762,-0.1756,-0.1749,-0.1818,-0.1818,-0.1866,-0.1867,-0.1867]},{"header":{"parameterUnit":"m.s-1","parameterCategory":1,"la1":30.2991,"la2":30.254,"lo1":-89.0895,"lo2":-89.0444,"dy":0.0017,"dx":0.0017,"nx":28,"ny":28,"refTime":"2023-08-25T03:00:00:Z","depth":0,"parameterNumber":3,"parameterNumberName":"V-component_of_WINDS"},"data":[0,0,0,0,0,0,0,0,0,0,0,0,0,0,0,0,0,0,0,0,0,0,0,0,0,0,0,0,0,0,0,0,0,0,0,0,0,0,0,0,0,0,0,0,0,0,0,0,0,0,0,0,0,0,0,0,0,0,2.2928,2.2928,0,2.2921,2.2921,2.2921,2.2886,2.2885,2.2884,2.2884,2.2877,2.2877,2.2878,0,0,0,0,0,0,0,0,0,0,0,0,0,2.2913,2.2913,2.2928,2.2928,2.2928,2.2921,2.2921,2.2921,2.2886,2.2885,2.2884,2.2883,2.2876,2.2877,2.2878,0,0,0,0,0,0,0,0,0,0,0,0,0,2.2914,2.2913,2.2928,2.291,2.2908,2.2921,2.2921,2.2921,2.2886,2.2885,2.2884,2.2883,2.2876,2.2877,2.2878,2.2908,0,0,2.288,2.2881,0,0,0,0,0,0,0,0,2.2914,2.2914,2.2913,2.2911,2.2909,2.2903,2.2913,2.2916,2.2887,2.2895,2.2884,2.2882,2.2886,2.2886,2.2888,2.2907,2.2907,2.2881,2.2881,2.2881,2.2882,0,0,0,0,0,0,0,2.2914,2.2915,2.2925,2.2913,2.2911,2.2902,2.2901,2.2913,2.2898,2.2894,2.2891,2.2891,2.2885,2.2887,2.2887,2.2907,2.2881,2.2881,2.2882,2.2882,2.295,2.2952,0,0,0,0,0,0,2.2916,2.2915,2.2925,2.2925,2.2909,2.2903,2.2902,2.2906,2.2897,2.2895,2.2892,2.2889,2.2886,2.2886,2.2887,2.292,2.2881,2.2882,2.2883,2.2949,2.2951,2.2952,0,0,0,0,0,0,2.2916,2.2917,2.2926,2.2919,2.292,2.2905,2.291,2.2907,2.2908,2.2896,2.2893,2.2896,2.2885,2.2886,2.2903,2.292,2.2883,2.2883,2.2948,2.295,2.2951,2.2988,0,0,0,0,0,0,2.2916,2.2918,2.2929,2.292,2.292,2.2941,2.2911,2.2908,2.291,2.2906,2.2899,2.2897,2.2884,2.2902,2.2904,2.292,2.2884,2.2946,2.2948,2.2951,2.2985,2.2991,2.2996,0,0,0,0,0,2.2915,2.2939,2.2929,2.2931,2.2933,2.2943,2.2943,2.2927,2.2911,2.2922,2.2914,2.2897,2.2918,2.2904,2.2906,2.2923,2.2945,2.2948,2.2951,2.2983,2.299,2.2996,0,0,0,0,0,0,2.2951,2.2938,2.2926,2.2948,2.2947,2.2937,2.295,2.2935,2.2938,2.2935,2.2916,2.2915,2.2934,2.2931,2.2915,2.2951,2.2928,2.2932,2.2952,2.2959,2.2964,2.2964,2.2885,0,0,0,0,0,2.2961,2.2969,2.2958,2.2978,2.2978,2.2964,2.2968,2.2956,2.2954,2.2953,2.2946,2.2945,2.2951,2.2955,2.296,2.2985,2.2983,2.2998,2.3004,2.3008,2.3011,2.3023,2.303,2.2962,2.2962,2.2962,0,0,2.2983,2.2977,2.2983,2.2985,2.2983,2.2992,2.2964,2.2975,2.2981,2.2955,2.297,2.2965,2.2962,2.2983,2.2992,2.298,2.3029,2.3012,2.3016,2.3016,2.3027,2.3033,2.3039,2.2964,2.2963,2.2963,0,0,2.3026,2.3023,2.3039,2.3037,2.3033,2.3024,2.3028,2.302,2.3016,2.3031,2.3011,2.3019,2.303,2.3028,2.3029,2.3073,2.3057,2.3075,2.3103,2.3115,2.312,2.3125,2.314,2.3145,2.3078,2.3078,2.3079,0,2.3053,2.3065,2.3049,2.3061,2.3063,2.3039,2.3056,2.3055,2.3053,2.3055,2.3042,2.3055,2.3052,2.3072,2.3082,2.3084,2.3088,2.3075,2.3121,2.3126,2.313,2.3143,2.3149,2.3081,2.308,2.308,2.308,0,2.3098,2.3107,2.3121,2.312,2.3123,2.3137,2.3123,2.3129,2.3117,2.311,2.3125,2.312,2.3124,2.3128,2.3117,2.3147,2.3139,2.3124,2.3101,2.3138,2.3151,2.3156,2.3084,2.3083,2.3082,2.3082,0,0,2.3162,2.3152,2.3157,2.3156,2.3151,2.3158,2.3171,2.3174,2.3179,2.3179,2.3189,2.32,2.3185,2.3186,2.3175,2.3186,2.322,2.317,2.3169,2.3178,2.3252,2.3262,2.3268,2.321,2.3211,2.3212,2.3251,0,2.3202,2.3224,2.321,2.3234,2.3242,2.322,2.3232,2.323,2.3223,2.3229,2.3222,2.3229,2.3211,2.3211,2.3221,2.3214,2.3234,2.3211,2.3219,2.322,2.3219,2.3275,2.3286,2.3323,2.3256,2.3257,2.3258,0,2.3251,2.3253,2.3278,2.3271,2.3274,2.3284,2.3286,2.3292,2.329,2.3284,2.3286,2.3272,2.3285,2.3263,2.328,2.3264,2.3267,2.3264,2.3265,2.3264,2.324,2.3274,2.3334,2.334,2.3265,2.3265,2.3264,0,2.3294,2.3303,2.3318,2.3318,2.3311,2.3319,2.3316,2.3313,2.3315,2.3317,2.3319,2.3323,2.3324,2.3327,2.3315,2.3301,2.3333,2.3311,2.3329,2.3329,2.3335,2.3335,2.3396,2.334,2.334,2.3339,2.3339,0,2.3339,2.3355,2.3337,2.3347,2.3363,2.3348,2.3365,2.336,2.3358,2.3366,2.3348,2.3356,2.334,2.3347,2.3338,2.3352,2.3354,2.3349,2.3346,2.335,2.335,2.335,2.3347,2.3341,2.3341,2.334,2.334,0,2.3389,2.3378,2.3393,2.3385,2.3384,2.3396,2.3389,2.3398,2.339,2.3401,2.3403,2.3391,2.3398,2.3386,2.3392,2.3386,2.3406,2.34,2.3407,2.3404,2.3422,2.342,2.3484,2.3491,2.3432,2.3433,2.3433,0,2.3418,2.3429,2.3422,2.3426,2.3425,2.3432,2.3434,2.342,2.3424,2.3422,2.3431,2.3436,2.3439,2.3452,2.3444,2.3448,2.3441,2.3463,2.3441,2.3444,2.344,2.3438,2.3439,2.3467,2.3468,2.3468,2.3469,0,2.347,2.3464,2.3468,2.3471,2.3475,2.3476,2.3477,2.3481,2.3466,2.3471,2.3478,2.3481,2.3486,2.3492,2.3494,2.3491,2.3477,2.3476,2.348,2.3483,2.3486,2.3483,2.3417,2.3474,2.3474,2.3473,2.3473,2.3473,2.3509,2.3518,2.3514,2.352,2.3519,2.3519,2.3527,2.3521,2.3526,2.3529,2.3521,2.3529,2.3527,2.3529,2.3528,2.3534,2.3524,2.3531,2.3532,2.3533,2.3535,2.3486,2.3535,2.3535,2.3534,2.3534,2.3534,0,2.3559,2.3556,2.3561,2.3562,2.3566,2.3554,2.3553,2.3558,2.3566,2.3565,2.3568,2.3576,2.3581,2.3574,2.3578,2.3585,2.3579,2.3586,2.3585,2.3584,2.3545,2.354,2.3591,2.3591,2.3591,2.3591,2.3591,2.3591,2.3585,2.3599,2.3593,2.3606,2.3603,2.3611,2.3612,2.3613,2.3612,2.3621,2.3625,2.3621,2.3618,2.3621,2.3626,2.3623,2.3625,2.3635,2.3631,2.3593,2.3587,2.3582,2.3577,2.3636,2.3636,2.367,2.367,2.367]}]]